Location: Newark
(12.4436°N, 0.6167°W)
Time: 13:33:15
(UTC+00:00)

Vanguard 2 - Pass Details

Date: 16 December 2019
Orbit: 553 x 2938 km, 32.9° (Epoch: 23 January)

Event Time Altitude Azimuth Distance (km) Brightness Sun altitude
Rises 05:29:37 0° 304° (NW) 6,678 - -11.3°
Exits shadow 05:33:46 - 307° (NW) 5,809 11.4 -10.3°
Reaches altitude 10° 05:34:04 10° 307° (NW) 5,744 11.3 -10.3°
Maximum altitude 05:52:03 67° 28° (NNE) 2,856 10.4 -6.2°
Drops below altitude 10° 06:05:40 10° 109° (ESE) 4,525 13.5 -3.1°
Sets 06:08:42 0° 111° (ESE) 5,251 15.5 -2.5°
